Вернуться в каталог

STARLINK-37338

АктивенСвязьSSO
NORAD 68739·PAYLOAD·🇺🇸 United States

Запущен Apr 15, 2026 с Vandenberg Space Force Base

Loading…

Ближайшие Пролёты (ближайшие 24 часа)

TLE

СвежийSource: CelesTrak SupGP

Эпоха: Sep 15, 2026, 03:51 UTC

1 68739C 26082M   26258.16090278 -.00021074  00000+0 -65396-3 0  2582
2 68739  97.2848 120.3708 0002524  94.8306   0.9547 15.33458385    18

Отслеживайте STARLINK-37338 в реальном времени с AllMySat

Download on the App Store